START_TIME,STEP,MOV.,M29,t_acc.,H22,t_acc.,H26,t_acc.,H30,t_acc.
1979-03-01 21:00:21.360 ,1,1,0.,24.0,0.,24.0,0.,24.0,0.,24.0
1979-03-01 21:00:45.360 ,2,1,0.,24.0,0.,24.0,0.,24.0,0.,24.0
1979-03-01 21:01:09.360 ,3,1,0.,24.0,0.,24.0,0.,24.0,0.,24.0
1979-03-01 21:01:33.360 ,4,1,0.,24.0,0.,24.0,0.,24.0,0.,24.0
1979-03-01 21:01:57.360 ,5,1,0.,24.0,0.,24.0,0.,24.0,0.,24.0
1979-03-01 21:02:21.360 ,6,1,0.,24.0,0.,24.0,0.,24.0,0.,24.0
1979-03-01 21:02:45.360 ,7,1,0.,24.0,0.,24.0,0.,24.0,0.,24.0
1979-03-01 21:03:09.360 ,7,1,0.,24.0,0.,24.0,0.,24.0,0.,24.0
1979-03-01 21:03:33.360 ,6,1,0.,24.0,0.,24.0,0.,24.0,0.,24.0
1979-03-01 21:03:57.360 ,5,1,0.,24.0,0.,24.0,0.,24.0,0.,24.0
1979-03-01 21:04:21.360 ,4,1,0.,24.0,0.,24.0,0.,24.0,0.,24.0
1979-03-01 21:04:45.360 ,3,1,0.,24.0,0.,24.0,0.,24.0,0.,24.0
1979-03-01 21:05:09.360 ,2,1,0.,24.0,0.,24.0,0.,24.0,0.,24.0
1979-03-01 21:05:33.360 ,1,1,0.,24.0,0.,24.0,0.,24.0,0.,24.0
1979-03-01 21:05:57.360 ,0,1,0.,24.0,0.,24.0,0.,24.0,0.,24.0
1979-03-01 21:06:21.360 ,0,1,0.,24.0,0.,24.0,0.,24.0,0.,24.0
1979-03-01 21:06:45.360 ,1,1,0.,24.0,0.,24.0,0.,24.0,0.,24.0
1979-03-01 21:07:09.360 ,2,1,0.,24.0,0.,24.0,0.,24.0,0.,24.0
1979-03-01 21:07:33.360 ,3,1,0.,24.0,0.,24.0,0.,24.0,0.,24.0
1979-03-01 21:07:57.360 ,4,1,0.,24.0,0.,24.0,0.,24.0,0.,24.0
1979-03-01 21:08:21.360 ,5,1,0.,24.0,0.,24.0,0.,24.0,0.,24.0
1979-03-01 21:08:45.360 ,6,1,0.,24.0,0.,24.0,0.,24.0,0.,24.0
1979-03-01 21:09:09.360 ,7,1,0.,24.0,0.,24.0,0.,24.0,0.,24.0
1979-03-01 21:09:33.360 ,7,1,0.,24.0,0.,24.0,0.,24.0,0.,24.0
1979-03-01 21:09:57.360 ,6,1,0.,24.0,0.,24.0,0.,24.0,0.,24.0
1979-03-01 21:10:21.360 ,5,1,0.,24.0,0.,24.0,0.,24.0,0.,24.0
1979-03-01 21:10:45.360 ,4,1,0.,24.0,0.,24.0,0.,24.0,0.,24.0
1979-03-01 21:11:09.360 ,3,1,0.,24.0,0.,24.0,0.,24.0,0.,24.0
1979-03-01 21:11:33.360 ,2,1,0.,24.0,0.,24.0,0.,24.0,0.,24.0
1979-03-01 21:11:57.360 ,1,1,0.,24.0,0.,24.0,0.,24.0,0.,24.0
1979-03-01 21:12:21.360 ,0,1,0.,24.0,0.,24.0,0.,24.0,0.,24.0
1979-03-01 21:12:45.360 ,0,1,0.,24.0,0.,24.0,0.,24.0,0.,24.0
1979-03-01 21:13:09.360 ,1,1,0.,24.0,0.,24.0,0.,24.0,0.,24.0
1979-03-01 21:13:33.360 ,2,1,0.,24.0,0.,24.0,0.,24.0,0.,24.0
1979-03-01 21:13:57.360 ,3,1,0.,24.0,0.,24.0,0.,24.0,0.,24.0
1979-03-01 21:14:21.360 ,4,1,0.,24.0,0.,24.0,0.,24.0,0.,24.0
1979-03-01 21:14:45.360 ,5,1,0.,24.0,0.,24.0,0.,24.0,0.,24.0
1979-03-01 21:15:09.360 ,6,1,0.,24.0,0.,24.0,0.,24.0,1.,24.0
1979-03-01 21:15:33.360 ,7,1,0.,24.0,0.,24.0,0.,24.0,0.,24.0
1979-03-01 21:15:57.360 ,7,1,0.,24.0,0.,24.0,0.,24.0,0.,24.0
1979-03-01 21:16:21.360 ,6,1,0.,24.0,0.,24.0,0.,24.0,0.,24.0
1979-03-01 21:16:45.360 ,5,1,0.,24.0,0.,24.0,0.,24.0,0.,24.0
1979-03-01 21:17:09.360 ,4,1,0.,24.0,0.,24.0,0.,24.0,0.,24.0
1979-03-01 21:17:33.360 ,3,1,0.,24.0,0.,24.0,0.,24.0,0.,24.0
1979-03-01 21:17:57.360 ,2,1,0.,24.0,0.,24.0,0.,24.0,0.,24.0
1979-03-01 21:18:21.360 ,1,1,0.,24.0,0.,24.0,0.,24.0,0.,24.0
1979-03-01 21:18:45.360 ,0,1,0.,24.0,0.,24.0,0.,24.0,0.,24.0
1979-03-01 21:19:09.360 ,0,1,0.,24.0,0.,24.0,0.,24.0,0.,24.0
1979-03-01 21:19:33.360 ,1,1,0.,24.0,0.,24.0,0.,24.0,0.,24.0
1979-03-01 21:19:57.360 ,2,1,0.,24.0,0.,24.0,0.,24.0,0.,24.0
1979-03-01 21:20:21.360 ,3,1,0.,24.0,0.,24.0,0.,24.0,0.,24.0
1979-03-01 21:20:45.360 ,4,1,0.,24.0,0.,24.0,0.,24.0,0.,24.0
1979-03-01 21:21:09.360 ,5,1,0.,24.0,0.,24.0,0.,24.0,0.,24.0
1979-03-01 21:21:57.360 ,7,1,1.,24.0,0.,24.0,0.,24.0,0.,24.0
1979-03-01 21:22:21.360 ,7,1,0.,24.0,0.,24.0,0.,24.0,0.,24.0
1979-03-01 21:22:45.360 ,6,1,0.,24.0,0.,24.0,0.,24.0,0.,24.0
1979-03-01 21:23:09.360 ,0,0,0.,24.0,0.,24.0,0.,24.0,0.,24.0
1979-03-01 21:23:33.360 ,0,0,0.,24.0,0.,24.0,0.,24.0,0.,24.0
1979-03-01 21:23:57.360 ,3,1,0.,24.0,0.,24.0,0.,24.0,0.,24.0
1979-03-01 21:24:21.360 ,2,1,0.,24.0,0.,24.0,0.,24.0,0.,24.0
1979-03-01 21:24:45.360 ,1,1,0.,24.0,0.,24.0,0.,24.0,0.,24.0
1979-03-01 21:25:09.360 ,0,1,0.,24.0,0.,24.0,0.,24.0,0.,24.0
1979-03-01 21:25:33.360 ,0,1,0.,24.0,0.,24.0,0.,24.0,0.,24.0
1979-03-01 21:25:57.360 ,1,1,0.,24.0,0.,24.0,0.,24.0,0.,24.0
1979-03-01 21:26:21.360 ,2,1,0.,24.0,0.,24.0,0.,24.0,0.,24.0
1979-03-01 21:26:45.360 ,3,1,0.,24.0,0.,24.0,0.,24.0,0.,24.0
1979-03-01 21:27:09.360 ,4,1,0.,24.0,0.,24.0,0.,24.0,0.,24.0
1979-03-01 21:27:33.360 ,5,1,0.,24.0,0.,24.0,0.,24.0,0.,24.0
1979-03-01 21:27:57.360 ,6,1,0.,24.0,0.,24.0,0.,24.0,0.,24.0
1979-03-01 21:28:21.360 ,7,1,0.,24.0,0.,24.0,0.,24.0,0.,24.0
1979-03-01 21:28:45.360 ,7,1,0.,24.0,0.,24.0,0.,24.0,0.,24.0
1979-03-01 21:29:09.360 ,6,1,0.,24.0,0.,24.0,0.,24.0,0.,24.0
1979-03-01 21:29:33.360 ,5,1,0.,24.0,0.,24.0,0.,24.0,0.,24.0
1979-03-01 21:29:57.360 ,4,1,0.,24.0,0.,24.0,0.,24.0,0.,24.0
1979-03-01 21:30:21.360 ,3,1,0.,24.0,0.,24.0,0.,24.0,0.,24.0
1979-03-01 21:30:45.360 ,2,1,0.,24.0,0.,24.0,0.,24.0,0.,24.0
1979-03-01 21:31:09.360 ,1,1,0.,24.0,0.,24.0,0.,24.0,0.,24.0
1979-03-01 21:31:33.360 ,0,1,0.,24.0,0.,24.0,0.,24.0,0.,24.0
1979-03-01 21:31:57.360 ,0,1,0.,24.0,0.,24.0,0.,24.0,0.,24.0
1979-03-01 21:32:21.360 ,1,1,0.,24.0,0.,24.0,0.,24.0,0.,24.0
1979-03-01 21:32:45.360 ,2,1,0.,24.0,0.,24.0,0.,24.0,0.,24.0
1979-03-01 21:33:09.360 ,3,1,0.,24.0,0.,24.0,0.,24.0,0.,24.0
1979-03-01 21:33:33.360 ,4,1,0.,24.0,0.,24.0,0.,24.0,0.,24.0
1979-03-01 21:33:57.360 ,5,1,0.,24.0,0.,24.0,0.,24.0,0.,24.0
1979-03-01 21:34:21.360 ,6,1,0.,24.0,0.,24.0,0.,24.0,0.,24.0
1979-03-01 21:34:45.360 ,7,1,0.,24.0,0.,24.0,0.,24.0,0.,24.0
1979-03-01 21:35:09.360 ,7,1,0.,24.0,0.,24.0,0.,24.0,0.,24.0
1979-03-01 21:35:33.360 ,6,1,0.,24.0,0.,24.0,0.,24.0,0.,24.0
1979-03-01 21:35:57.360 ,5,1,0.,24.0,0.,24.0,0.,24.0,0.,24.0
1979-03-01 21:36:21.360 ,4,1,0.,24.0,0.,24.0,0.,24.0,0.,24.0
1979-03-01 21:36:45.360 ,3,1,0.,24.0,0.,24.0,0.,24.0,0.,24.0
1979-03-01 21:37:09.360 ,2,1,0.,24.0,0.,24.0,0.,24.0,0.,24.0
1979-03-01 21:37:33.360 ,1,1,0.,24.0,0.,24.0,0.,24.0,0.,24.0
1979-03-01 21:37:57.360 ,0,1,0.,24.0,0.,24.0,0.,24.0,0.,24.0
1979-03-01 21:38:21.360 ,0,1,0.,24.0,0.,24.0,0.,24.0,0.,24.0
1979-03-01 21:38:45.360 ,1,1,0.,24.0,0.,24.0,0.,24.0,0.,24.0
1979-03-01 21:39:09.360 ,2,1,0.,24.0,0.,24.0,0.,24.0,0.,24.0
1979-03-01 21:39:33.360 ,3,1,0.,24.0,0.,24.0,0.,24.0,0.,24.0
1979-03-01 21:39:57.360 ,4,1,0.,24.0,0.,24.0,0.,24.0,0.,24.0
1979-03-01 21:40:21.360 ,5,1,0.,24.0,0.,24.0,0.,24.0,0.,24.0
1979-03-01 21:40:45.360 ,6,1,0.,24.0,0.,24.0,0.,24.0,0.,24.0
1979-03-01 21:41:09.360 ,7,1,0.,24.0,0.,24.0,0.,24.0,0.,24.0
1979-03-01 21:41:33.360 ,7,1,0.,24.0,0.,24.0,0.,24.0,0.,24.0
1979-03-01 21:41:57.360 ,0,0,0.,24.0,0.,24.0,0.,24.0,0.,24.0
1979-03-01 21:42:41.760 ,0,0,,0,,0,,0,,0
1979-03-01 21:42:45.360 ,4,1,0.,24.0,0.,24.0,0.,24.0,0.,24.0
1979-03-01 21:43:09.360 ,3,1,0.,24.0,0.,24.0,0.,24.0,0.,24.0
1979-03-01 21:43:33.360 ,2,1,0.,24.0,0.,24.0,0.,24.0,0.,24.0
1979-03-01 21:43:57.360 ,1,1,0.,24.0,0.,24.0,0.,24.0,0.,24.0
1979-03-01 21:44:21.360 ,0,1,0.,24.0,0.,24.0,0.,24.0,0.,24.0
1979-03-01 21:44:45.360 ,0,1,0.,24.0,0.,24.0,0.,24.0,0.,24.0
1979-03-01 21:45:09.360 ,1,1,0.,24.0,0.,24.0,0.,24.0,0.,24.0
1979-03-01 21:45:33.360 ,2,1,0.,24.0,0.,24.0,0.,24.0,0.,24.0
1979-03-01 21:45:57.360 ,3,1,0.,24.0,0.,24.0,0.,24.0,0.,24.0
1979-03-01 21:46:21.360 ,4,1,0.,24.0,0.,24.0,0.,24.0,0.,24.0
1979-03-01 21:46:45.360 ,5,1,0.,24.0,0.,24.0,0.,24.0,0.,24.0
1979-03-01 21:47:09.360 ,6,1,0.,24.0,0.,24.0,0.,24.0,0.,24.0
1979-03-01 21:47:33.360 ,7,1,0.,24.0,0.,24.0,0.,24.0,0.,24.0
1979-03-01 21:47:57.360 ,7,1,0.,24.0,0.,24.0,0.,24.0,0.,24.0
1979-03-01 21:48:21.360 ,6,1,0.,24.0,0.,24.0,0.,24.0,0.,24.0
1979-03-01 21:48:45.360 ,5,1,0.,24.0,0.,24.0,0.,24.0,0.,24.0
1979-03-01 21:49:09.360 ,0,0,0.,24.0,0.,24.0,0.,24.0,0.,24.0
1979-03-01 21:49:43.560 ,0,0,,0,,0,,0,,0
1979-03-01 21:49:57.360 ,2,1,0.,24.0,0.,24.0,0.,24.0,0.,24.0
1979-03-01 21:50:21.360 ,1,1,0.,24.0,0.,24.0,0.,24.0,0.,24.0
1979-03-01 21:50:45.360 ,0,1,0.,24.0,0.,24.0,0.,24.0,0.,24.0
1979-03-01 21:51:09.360 ,0,1,0.,24.0,0.,24.0,0.,24.0,0.,24.0
1979-03-01 21:51:33.360 ,1,1,0.,24.0,0.,24.0,0.,24.0,0.,24.0
1979-03-01 21:51:57.360 ,2,1,0.,24.0,0.,24.0,0.,24.0,0.,24.0
1979-03-01 21:52:45.360 ,0,0,0.,24.0,0.,24.0,0.,24.0,0.,24.0
1979-03-01 21:53:09.360 ,5,1,0.,24.0,0.,24.0,0.,24.0,0.,24.0
1979-03-01 21:53:33.360 ,6,1,0.,24.0,0.,24.0,0.,24.0,0.,24.0
1979-03-01 21:53:57.360 ,7,1,0.,24.0,0.,24.0,0.,24.0,0.,24.0
1979-03-01 21:54:21.360 ,7,1,0.,24.0,0.,24.0,0.,24.0,0.,24.0
1979-03-01 21:54:45.360 ,6,1,0.,24.0,0.,24.0,0.,24.0,0.,24.0
1979-03-01 21:55:09.360 ,5,1,0.,24.0,0.,24.0,0.,24.0,0.,24.0
1979-03-01 21:55:33.360 ,4,1,0.,24.0,0.,24.0,0.,24.0,0.,24.0
1979-03-01 21:55:57.360 ,3,1,0.,24.0,0.,24.0,0.,24.0,0.,24.0
1979-03-01 21:56:21.360 ,2,1,0.,24.0,0.,24.0,0.,24.0,0.,24.0
1979-03-01 21:56:45.360 ,1,1,0.,24.0,0.,24.0,0.,24.0,0.,24.0
1979-03-01 21:57:09.360 ,0,1,0.,24.0,0.,24.0,0.,24.0,0.,24.0
1979-03-01 21:57:33.360 ,0,1,0.,24.0,0.,24.0,0.,24.0,0.,24.0
1979-03-01 21:57:57.360 ,1,1,0.,24.0,0.,24.0,0.,24.0,0.,24.0
1979-03-01 21:58:21.360 ,2,1,0.,24.0,0.,24.0,0.,24.0,0.,24.0
1979-03-01 21:58:45.360 ,3,1,0.,24.0,0.,24.0,0.,24.0,0.,24.0
1979-03-01 21:59:09.360 ,4,1,0.,24.0,0.,24.0,0.,24.0,0.,24.0
1979-03-01 21:59:33.360 ,5,1,0.,24.0,0.,24.0,0.,24.0,0.,24.0
1979-03-01 21:59:57.360 ,6,1,0.,24.0,0.,24.0,0.,24.0,0.,24.0
1979-03-01 22:00:21.360 ,7,1,0.,24.0,0.,24.0,0.,24.0,0.,24.0
1979-03-01 22:00:45.360 ,7,1,0.,24.0,0.,24.0,0.,24.0,0.,24.0
1979-03-01 22:01:09.360 ,6,1,1.,24.0,0.,24.0,0.,24.0,0.,24.0
1979-03-01 22:01:33.360 ,5,1,1.,24.0,0.,24.0,0.,24.0,0.,24.0
1979-03-01 22:01:57.360 ,4,1,0.,24.0,0.,24.0,0.,24.0,0.,24.0
1979-03-01 22:02:21.360 ,3,1,0.,24.0,0.,24.0,0.,24.0,0.,24.0
1979-03-01 22:02:45.360 ,2,1,1.,24.0,0.,24.0,0.,24.0,0.,24.0
1979-03-01 22:03:09.360 ,1,1,0.,24.0,0.,24.0,0.,24.0,0.,24.0
1979-03-01 22:03:33.360 ,0,1,0.,24.0,0.,24.0,0.,24.0,0.,24.0
1979-03-01 22:03:57.360 ,0,1,0.,24.0,0.,24.0,0.,24.0,0.,24.0
1979-03-01 22:04:21.360 ,1,1,0.,24.0,0.,24.0,0.,24.0,0.,24.0
1979-03-01 22:04:45.360 ,2,1,0.,24.0,0.,24.0,0.,24.0,0.,24.0
1979-03-01 22:05:09.360 ,3,1,0.,24.0,0.,24.0,0.,24.0,0.,24.0
1979-03-01 22:05:33.360 ,4,1,0.,24.0,0.,24.0,0.,24.0,0.,24.0
1979-03-01 22:05:57.360 ,5,1,0.,24.0,0.,24.0,0.,24.0,0.,24.0
1979-03-01 22:06:21.360 ,6,1,0.,24.0,0.,24.0,0.,24.0,0.,24.0
1979-03-01 22:06:45.360 ,7,1,0.,24.0,0.,24.0,0.,24.0,0.,24.0
1979-03-01 22:07:09.360 ,7,1,0.,24.0,0.,24.0,0.,24.0,0.,24.0
1979-03-01 22:07:33.360 ,6,1,0.,24.0,0.,24.0,0.,24.0,0.,24.0
1979-03-01 22:07:57.360 ,5,1,0.,24.0,0.,24.0,0.,24.0,0.,24.0
1979-03-01 22:08:21.360 ,4,1,0.,24.0,0.,24.0,0.,24.0,0.,24.0
1979-03-01 22:08:45.360 ,3,1,0.,24.0,0.,24.0,0.,24.0,0.,24.0
1979-03-01 22:09:09.360 ,2,1,0.,24.0,0.,24.0,0.,24.0,0.,24.0
1979-03-01 22:09:33.360 ,1,1,0.,24.0,0.,24.0,0.,24.0,0.,24.0
1979-03-01 22:09:57.360 ,0,1,0.,24.0,0.,24.0,0.,24.0,0.,24.0
1979-03-01 22:10:21.360 ,0,1,0.,24.0,0.,24.0,0.,24.0,0.,24.0
1979-03-01 22:10:45.360 ,1,1,1.,24.0,0.,24.0,0.,24.0,0.,24.0
1979-03-01 22:11:09.360 ,2,1,0.,24.0,0.,24.0,0.,24.0,0.,24.0
1979-03-01 22:11:33.360 ,3,1,0.,24.0,0.,24.0,0.,24.0,0.,24.0
1979-03-01 22:11:57.360 ,4,1,0.,24.0,0.,24.0,0.,24.0,0.,24.0
1979-03-01 22:12:21.360 ,5,1,0.,24.0,0.,24.0,0.,24.0,0.,24.0
1979-03-01 22:12:45.360 ,6,1,0.,24.0,0.,24.0,0.,24.0,0.,24.0
1979-03-01 22:13:09.360 ,7,1,0.,24.0,0.,24.0,0.,24.0,0.,24.0
1979-03-01 22:13:33.360 ,7,1,0.,24.0,0.,24.0,0.,24.0,0.,24.0
1979-03-01 22:13:57.360 ,6,1,0.,24.0,0.,24.0,0.,24.0,0.,24.0
1979-03-01 22:14:21.360 ,5,1,0.,24.0,0.,24.0,0.,24.0,0.,24.0
1979-03-01 22:14:45.360 ,4,1,0.,24.0,0.,24.0,0.,24.0,0.,24.0
1979-03-01 22:15:09.360 ,3,1,0.,24.0,0.,24.0,0.,24.0,0.,24.0
1979-03-01 22:15:33.360 ,2,1,0.,24.0,0.,24.0,0.,24.0,0.,24.0
1979-03-01 22:15:57.360 ,1,1,0.,24.0,0.,24.0,0.,24.0,0.,24.0
1979-03-01 22:16:21.360 ,0,1,0.,24.0,0.,24.0,0.,24.0,0.,24.0
1979-03-01 22:16:45.360 ,0,1,0.,24.0,0.,24.0,0.,24.0,0.,24.0
1979-03-01 22:17:09.360 ,1,1,0.,24.0,0.,24.0,0.,24.0,0.,24.0
1979-03-01 22:17:33.360 ,2,1,0.,24.0,0.,24.0,0.,24.0,0.,24.0
1979-03-01 22:17:57.360 ,3,1,0.,24.0,0.,24.0,0.,24.0,0.,24.0
1979-03-01 22:18:21.360 ,4,1,0.,24.0,0.,24.0,0.,24.0,0.,24.0
1979-03-01 22:18:45.360 ,5,1,0.,24.0,0.,24.0,0.,24.0,0.,24.0
1979-03-01 22:19:09.360 ,6,1,0.,24.0,0.,24.0,0.,24.0,0.,24.0
1979-03-01 22:19:33.360 ,7,1,0.,24.0,0.,24.0,0.,24.0,0.,24.0
1979-03-01 22:19:57.360 ,7,1,0.,24.0,0.,24.0,0.,24.0,0.,24.0
1979-03-01 22:20:21.360 ,6,1,0.,24.0,0.,24.0,0.,24.0,0.,24.0
1979-03-01 22:20:45.360 ,5,1,0.,24.0,0.,24.0,0.,24.0,0.,24.0
1979-03-01 22:21:09.360 ,4,1,0.,24.0,0.,24.0,0.,24.0,0.,24.0
1979-03-01 22:21:33.360 ,3,1,0.,24.0,0.,24.0,0.,24.0,0.,24.0
1979-03-01 22:21:57.360 ,2,1,0.,24.0,0.,24.0,0.,24.0,0.,24.0
1979-03-01 22:22:21.360 ,1,1,0.,24.0,0.,24.0,0.,24.0,0.,24.0
1979-03-01 22:22:45.360 ,0,1,0.,24.0,0.,24.0,0.,24.0,0.,24.0
1979-03-01 22:23:09.360 ,0,1,0.,24.0,0.,24.0,0.,24.0,0.,24.0
1979-03-01 22:23:33.360 ,1,1,0.,24.0,0.,24.0,0.,24.0,0.,24.0
1979-03-01 22:23:57.360 ,2,1,0.,24.0,0.,24.0,0.,24.0,0.,24.0
1979-03-01 22:24:21.360 ,3,1,0.,24.0,0.,24.0,0.,24.0,0.,24.0
1979-03-01 22:24:45.360 ,4,1,0.,24.0,0.,24.0,0.,24.0,0.,24.0
1979-03-01 22:25:09.360 ,5,1,0.,24.0,0.,24.0,0.,24.0,0.,24.0
1979-03-01 22:25:33.360 ,6,1,0.,24.0,0.,24.0,0.,24.0,0.,24.0
1979-03-01 22:25:57.360 ,7,1,0.,24.0,0.,24.0,0.,24.0,0.,24.0
1979-03-01 22:26:21.360 ,7,1,0.,24.0,0.,24.0,0.,24.0,0.,24.0
1979-03-01 22:26:45.360 ,6,1,0.,24.0,0.,24.0,0.,24.0,0.,24.0
1979-03-01 22:27:09.360 ,5,1,0.,24.0,0.,24.0,0.,24.0,0.,24.0
1979-03-01 22:27:33.360 ,4,1,0.,24.0,0.,24.0,0.,24.0,0.,24.0
1979-03-01 22:27:57.360 ,3,1,0.,24.0,0.,24.0,0.,24.0,0.,24.0
1979-03-01 22:28:21.360 ,2,1,0.,24.0,0.,24.0,0.,24.0,0.,24.0
1979-03-01 22:28:45.360 ,1,1,0.,24.0,0.,24.0,0.,24.0,0.,24.0
1979-03-01 22:29:09.360 ,0,1,0.,24.0,0.,24.0,0.,24.0,0.,24.0
1979-03-01 22:29:14.760 ,0,0,0.,24.0,0.,24.0,0.,24.0,0.,24.0
1979-03-01 22:29:33.360 ,0,0,,0,,0,,0,,0
1979-03-01 22:29:57.360 ,1,1,0.,24.0,0.,24.0,0.,24.0,0.,24.0
1979-03-01 22:30:21.360 ,2,1,0.,24.0,0.,24.0,0.,24.0,0.,24.0
1979-03-01 22:30:45.360 ,3,1,0.,24.0,0.,24.0,0.,24.0,0.,24.0
1979-03-01 22:31:09.360 ,4,1,0.,24.0,0.,24.0,0.,24.0,0.,24.0
1979-03-01 22:31:33.360 ,5,1,0.,24.0,0.,24.0,0.,24.0,0.,24.0
1979-03-01 22:31:57.360 ,6,1,0.,24.0,0.,24.0,0.,24.0,0.,24.0
1979-03-01 22:32:21.360 ,7,1,0.,24.0,0.,24.0,0.,24.0,0.,24.0
1979-03-01 22:32:45.360 ,7,1,0.,24.0,0.,24.0,0.,24.0,0.,24.0
1979-03-01 22:33:09.360 ,6,1,0.,24.0,0.,24.0,0.,24.0,0.,24.0
1979-03-01 22:33:43.560 ,5,0,,0,,0,,0,,0
1979-03-01 22:33:57.360 ,4,1,0.,24.0,0.,24.0,0.,24.0,0.,24.0
1979-03-01 22:34:21.360 ,3,1,0.,24.0,0.,24.0,0.,24.0,0.,24.0
1979-03-01 22:34:45.360 ,0,0,0.,24.0,0.,24.0,0.,24.0,0.,24.0
1979-03-01 22:35:36.960 ,0,0,0.,24.0,0.,24.0,0.,24.0,0.,24.0
1979-03-01 22:35:57.360 ,0,1,0.,24.0,0.,24.0,0.,24.0,0.,24.0
1979-03-01 22:36:21.360 ,0,0,2.,24.0,0.,24.0,0.,24.0,0.,24.0
1979-03-01 22:37:21.960 ,0,0,,0,,0,,0,,0
1979-03-01 22:37:33.360 ,4,1,0.,24.0,0.,24.0,0.,24.0,0.,24.0
1979-03-01 22:37:57.360 ,5,1,0.,24.0,0.,24.0,0.,24.0,0.,24.0
1979-03-01 22:38:21.360 ,6,1,0.,24.0,0.,24.0,0.,24.0,0.,24.0
1979-03-01 22:38:45.360 ,7,1,0.,24.0,0.,24.0,0.,24.0,0.,24.0
1979-03-01 22:39:09.360 ,7,1,0.,24.0,0.,24.0,0.,24.0,0.,24.0
1979-03-01 22:39:33.360 ,6,1,0.,24.0,0.,24.0,0.,24.0,0.,24.0
1979-03-01 22:39:57.360 ,5,1,0.,24.0,0.,24.0,0.,24.0,0.,24.0
1979-03-01 22:40:21.360 ,4,1,0.,24.0,0.,24.0,0.,24.0,0.,24.0
1979-03-01 22:40:45.360 ,3,1,1.,24.0,0.,24.0,0.,24.0,0.,24.0
1979-03-01 22:41:09.360 ,2,1,0.,24.0,0.,24.0,0.,24.0,0.,24.0
1979-03-01 22:41:33.360 ,1,1,0.,24.0,0.,24.0,0.,24.0,0.,24.0
1979-03-01 22:41:57.360 ,0,1,0.,24.0,0.,24.0,0.,24.0,0.,24.0
1979-03-01 22:42:21.360 ,0,1,0.,24.0,0.,24.0,0.,24.0,0.,24.0
1979-03-01 22:42:45.360 ,1,1,0.,24.0,0.,24.0,0.,24.0,0.,24.0
1979-03-01 22:43:09.360 ,2,1,0.,24.0,0.,24.0,0.,24.0,0.,24.0
1979-03-01 22:43:33.360 ,3,1,1.,24.0,0.,24.0,0.,24.0,0.,24.0
1979-03-01 22:43:57.360 ,4,1,0.,24.0,0.,24.0,0.,24.0,0.,24.0
1979-03-01 22:44:21.360 ,5,1,0.,24.0,0.,24.0,0.,24.0,0.,24.0
1979-03-01 22:44:45.360 ,6,1,0.,24.0,0.,24.0,0.,24.0,0.,24.0
1979-03-01 22:45:09.360 ,7,1,0.,24.0,0.,24.0,0.,24.0,0.,24.0
1979-03-01 22:45:33.360 ,7,1,0.,24.0,0.,24.0,0.,24.0,0.,24.0
1979-03-01 22:45:57.360 ,6,1,0.,24.0,0.,24.0,0.,24.0,0.,24.0
1979-03-01 22:46:21.360 ,5,1,0.,24.0,0.,24.0,0.,24.0,0.,24.0
1979-03-01 22:46:45.360 ,4,1,0.,24.0,0.,24.0,0.,24.0,0.,24.0
1979-03-01 22:47:09.360 ,3,1,0.,24.0,0.,24.0,0.,24.0,0.,24.0
1979-03-01 22:47:33.360 ,0,0,,0,,0,,0,,0
1979-03-01 22:47:35.160 ,2,1,0.,24.0,0.,24.0,0.,24.0,0.,24.0
1979-03-01 22:47:57.360 ,1,1,0.,24.0,0.,24.0,0.,24.0,0.,24.0
1979-03-01 22:48:21.360 ,0,1,0.,24.0,0.,24.0,0.,24.0,0.,24.0
1979-03-01 22:48:45.360 ,0,1,0.,24.0,0.,24.0,0.,24.0,0.,24.0
1979-03-01 22:49:09.360 ,1,1,0.,24.0,0.,24.0,0.,24.0,0.,24.0
1979-03-01 22:49:33.360 ,2,1,0.,24.0,0.,24.0,0.,24.0,0.,24.0
1979-03-01 22:49:57.360 ,3,1,0.,24.0,0.,24.0,0.,24.0,0.,24.0
1979-03-01 22:50:21.360 ,4,1,0.,24.0,0.,24.0,0.,24.0,0.,24.0
1979-03-01 22:50:45.360 ,5,1,0.,24.0,0.,24.0,0.,24.0,0.,24.0
1979-03-01 22:51:09.360 ,6,1,0.,24.0,0.,24.0,0.,24.0,0.,24.0
1979-03-01 22:51:33.360 ,7,1,0.,24.0,0.,24.0,0.,24.0,0.,24.0
1979-03-01 22:51:57.360 ,7,1,0.,24.0,0.,24.0,0.,24.0,0.,24.0
1979-03-01 22:52:21.360 ,6,1,0.,24.0,0.,24.0,0.,24.0,0.,24.0
1979-03-01 22:52:45.360 ,5,1,0.,24.0,0.,24.0,0.,24.0,0.,24.0
1979-03-01 22:53:09.360 ,4,1,0.,24.0,0.,24.0,0.,24.0,0.,24.0
1979-03-01 22:53:33.360 ,3,1,0.,24.0,0.,24.0,0.,24.0,0.,24.0
1979-03-01 22:53:57.360 ,2,1,0.,24.0,0.,24.0,0.,24.0,0.,24.0
1979-03-01 22:54:21.360 ,1,1,0.,24.0,0.,24.0,0.,24.0,0.,24.0
1979-03-01 22:54:45.360 ,0,1,0.,24.0,0.,24.0,0.,24.0,0.,24.0
1979-03-01 22:55:09.360 ,0,1,1.,24.0,0.,24.0,0.,24.0,0.,24.0
1979-03-01 22:55:33.360 ,1,1,0.,24.0,0.,24.0,0.,24.0,0.,24.0
1979-03-01 22:55:57.360 ,2,1,0.,24.0,0.,24.0,0.,24.0,0.,24.0
1979-03-01 22:56:21.360 ,3,1,0.,24.0,0.,24.0,0.,24.0,0.,24.0
1979-03-01 22:56:45.360 ,4,1,1.,24.0,0.,24.0,0.,24.0,0.,24.0
1979-03-01 22:57:09.360 ,5,1,0.,24.0,0.,24.0,0.,24.0,0.,24.0
1979-03-01 22:57:33.360 ,6,1,0.,24.0,0.,24.0,0.,24.0,0.,24.0
1979-03-01 22:57:57.360 ,7,1,0.,24.0,0.,24.0,0.,24.0,0.,24.0
1979-03-01 22:58:21.360 ,7,1,0.,24.0,0.,24.0,0.,24.0,0.,24.0
1979-03-01 22:58:45.360 ,6,1,0.,24.0,0.,24.0,0.,24.0,0.,24.0
1979-03-01 22:59:09.360 ,5,1,0.,24.0,0.,24.0,0.,24.0,0.,24.0
1979-03-01 22:59:33.360 ,4,0,,0,,0,,0,,0
1979-03-01 22:59:57.360 ,3,1,0.,24.0,0.,24.0,0.,24.0,0.,24.0
1979-03-01 23:00:21.360 ,2,1,0.,24.0,0.,24.0,0.,24.0,0.,24.0
1979-03-01 23:00:45.360 ,1,1,0.,24.0,0.,24.0,0.,24.0,0.,24.0
1979-03-01 23:01:09.360 ,0,1,0.,24.0,0.,24.0,0.,24.0,0.,24.0
1979-03-01 23:01:33.360 ,0,1,0.,24.0,0.,24.0,0.,24.0,0.,24.0
1979-03-01 23:01:57.360 ,1,1,0.,24.0,0.,24.0,0.,24.0,0.,24.0
1979-03-01 23:02:21.360 ,2,1,0.,24.0,0.,24.0,0.,24.0,0.,24.0
1979-03-01 23:02:45.360 ,3,1,0.,24.0,0.,24.0,0.,24.0,0.,24.0
1979-03-01 23:03:09.360 ,4,1,0.,24.0,0.,24.0,0.,24.0,0.,24.0
1979-03-01 23:03:33.360 ,5,1,1.,24.0,0.,24.0,0.,24.0,0.,24.0
1979-03-01 23:03:57.360 ,6,1,0.,24.0,0.,24.0,0.,24.0,0.,24.0
1979-03-01 23:04:21.360 ,7,1,0.,24.0,0.,24.0,0.,24.0,0.,24.0
1979-03-01 23:04:45.360 ,7,1,0.,24.0,0.,24.0,0.,24.0,0.,24.0
1979-03-01 23:05:09.360 ,6,1,0.,24.0,0.,24.0,0.,24.0,0.,24.0
1979-03-01 23:05:33.360 ,5,1,0.,24.0,0.,24.0,0.,24.0,0.,24.0
1979-03-01 23:05:57.360 ,4,1,0.,24.0,0.,24.0,0.,24.0,0.,24.0
1979-03-01 23:06:21.360 ,3,1,0.,24.0,0.,24.0,0.,24.0,0.,24.0
1979-03-01 23:06:45.360 ,2,1,0.,24.0,0.,24.0,0.,24.0,0.,24.0
1979-03-01 23:07:09.360 ,1,1,0.,24.0,0.,24.0,0.,24.0,0.,24.0
1979-03-01 23:07:33.360 ,0,1,0.,24.0,0.,24.0,0.,24.0,0.,24.0
1979-03-01 23:07:57.360 ,0,1,0.,24.0,0.,24.0,0.,24.0,0.,24.0
1979-03-01 23:08:21.360 ,1,1,0.,24.0,0.,24.0,0.,24.0,0.,24.0
1979-03-01 23:08:45.360 ,2,1,0.,24.0,0.,24.0,0.,24.0,0.,24.0
1979-03-01 23:09:09.360 ,3,1,0.,24.0,0.,24.0,0.,24.0,0.,24.0
1979-03-01 23:09:33.360 ,4,1,0.,24.0,0.,24.0,0.,24.0,0.,24.0
1979-03-01 23:09:57.360 ,5,1,0.,24.0,0.,24.0,0.,24.0,0.,24.0
1979-03-01 23:10:21.360 ,6,1,0.,24.0,0.,24.0,0.,24.0,0.,24.0
1979-03-01 23:10:45.360 ,0,0,0.,24.0,0.,24.0,0.,24.0,0.,24.0
1979-03-01 23:12:21.960 ,0,0,1.,24.0,0.,24.0,0.,24.0,0.,24.0
1979-03-01 23:12:45.360 ,3,1,0.,24.0,0.,24.0,0.,24.0,0.,24.0
1979-03-01 23:13:09.360 ,0,0,,0,,0,,0,,0
1979-03-01 23:17:14.760 ,0,0,0.,24.0,0.,24.0,0.,24.0,0.,24.0
1979-03-01 23:17:33.360 ,7,1,0.,24.0,0.,24.0,0.,24.0,0.,24.0
1979-03-01 23:17:57.360 ,6,1,0.,24.0,0.,24.0,0.,24.0,0.,24.0
1979-03-01 23:18:21.360 ,5,1,0.,24.0,0.,24.0,0.,24.0,0.,24.0
1979-03-01 23:18:45.360 ,4,0,,0,,0,,0,,0
1979-03-01 23:19:09.360 ,3,1,0.,24.0,0.,24.0,0.,24.0,0.,24.0
1979-03-01 23:19:33.360 ,2,1,0.,24.0,0.,24.0,0.,24.0,0.,24.0
1979-03-01 23:19:57.360 ,1,1,0.,24.0,0.,24.0,0.,24.0,0.,24.0
1979-03-01 23:20:21.360 ,0,1,0.,24.0,0.,24.0,0.,24.0,0.,24.0
1979-03-01 23:20:45.360 ,0,1,0.,24.0,0.,24.0,0.,24.0,0.,24.0
1979-03-01 23:21:09.360 ,1,1,0.,24.0,0.,24.0,0.,24.0,0.,24.0
1979-03-01 23:21:33.360 ,2,1,0.,24.0,0.,24.0,0.,24.0,0.,24.0
1979-03-01 23:21:57.360 ,3,1,0.,24.0,0.,24.0,0.,24.0,0.,24.0
1979-03-01 23:22:21.360 ,4,1,0.,24.0,0.,24.0,0.,24.0,0.,24.0
1979-03-01 23:22:45.360 ,5,1,0.,24.0,0.,24.0,0.,24.0,0.,24.0
1979-03-01 23:23:09.360 ,0,0,0.,24.0,0.,24.0,0.,24.0,0.,24.0
1979-03-01 23:23:33.360 ,7,1,0.,24.0,0.,24.0,0.,24.0,0.,24.0
1979-03-01 23:23:57.360 ,7,1,0.,24.0,0.,24.0,0.,24.0,0.,24.0
1979-03-01 23:24:21.360 ,6,1,0.,24.0,0.,24.0,0.,24.0,0.,24.0
1979-03-01 23:24:45.360 ,5,1,0.,24.0,0.,24.0,0.,24.0,0.,24.0
1979-03-01 23:25:09.360 ,4,1,0.,24.0,0.,24.0,0.,24.0,0.,24.0
1979-03-01 23:25:33.360 ,3,1,0.,24.0,0.,24.0,0.,24.0,0.,24.0
1979-03-01 23:25:57.360 ,2,1,0.,24.0,0.,24.0,0.,24.0,0.,24.0
1979-03-01 23:26:21.360 ,1,1,0.,24.0,0.,24.0,0.,24.0,0.,24.0
1979-03-01 23:26:45.360 ,0,1,0.,24.0,0.,24.0,0.,24.0,0.,24.0
1979-03-01 23:27:09.360 ,0,1,0.,24.0,0.,24.0,0.,24.0,0.,24.0
1979-03-01 23:27:33.360 ,1,1,0.,24.0,0.,24.0,0.,24.0,0.,24.0
1979-03-01 23:27:57.360 ,2,1,0.,24.0,0.,24.0,0.,24.0,0.,24.0
1979-03-01 23:28:21.360 ,3,1,0.,24.0,0.,24.0,0.,24.0,0.,24.0
1979-03-01 23:28:45.360 ,4,1,0.,24.0,0.,24.0,0.,24.0,0.,24.0
1979-03-01 23:29:09.360 ,5,1,0.,24.0,0.,24.0,0.,24.0,0.,24.0
1979-03-01 23:29:33.360 ,6,1,0.,24.0,0.,24.0,0.,24.0,0.,24.0
1979-03-01 23:29:57.360 ,7,1,0.,24.0,0.,24.0,0.,24.0,0.,24.0
1979-03-01 23:30:21.360 ,7,1,0.,24.0,0.,24.0,0.,24.0,0.,24.0
1979-03-01 23:30:45.360 ,6,1,0.,24.0,0.,24.0,0.,24.0,0.,24.0
1979-03-01 23:31:09.360 ,5,1,0.,24.0,0.,24.0,0.,24.0,0.,24.0
1979-03-01 23:31:33.360 ,4,1,0.,24.0,0.,24.0,0.,24.0,0.,24.0
1979-03-01 23:31:57.360 ,3,1,0.,24.0,0.,24.0,0.,24.0,0.,24.0
1979-03-01 23:32:21.360 ,2,1,0.,24.0,0.,24.0,0.,24.0,0.,24.0
1979-03-01 23:32:45.360 ,1,1,0.,24.0,0.,24.0,0.,24.0,0.,24.0
1979-03-01 23:33:09.360 ,0,1,0.,24.0,0.,24.0,0.,24.0,0.,24.0
1979-03-01 23:33:33.360 ,0,1,0.,24.0,0.,24.0,0.,24.0,0.,24.0
1979-03-01 23:33:57.360 ,1,1,0.,24.0,0.,24.0,0.,24.0,0.,24.0
1979-03-01 23:34:21.360 ,2,1,0.,24.0,0.,24.0,0.,24.0,0.,24.0
1979-03-01 23:34:45.360 ,3,1,0.,24.0,0.,24.0,0.,24.0,0.,24.0
1979-03-01 23:35:09.360 ,4,1,0.,24.0,0.,24.0,0.,24.0,0.,24.0
1979-03-01 23:35:33.360 ,5,1,0.,24.0,0.,24.0,0.,24.0,0.,24.0
1979-03-01 23:35:57.360 ,6,1,0.,24.0,0.,24.0,0.,24.0,0.,24.0
1979-03-01 23:36:21.360 ,7,1,0.,24.0,0.,24.0,0.,24.0,0.,24.0
1979-03-01 23:36:45.360 ,7,1,0.,24.0,0.,24.0,0.,24.0,0.,24.0
1979-03-01 23:37:09.360 ,6,1,0.,24.0,0.,24.0,0.,24.0,0.,24.0
1979-03-01 23:37:33.360 ,5,1,0.,24.0,0.,24.0,0.,24.0,0.,24.0
1979-03-01 23:37:57.360 ,4,1,0.,24.0,0.,24.0,0.,24.0,0.,24.0
1979-03-01 23:38:21.360 ,3,1,0.,24.0,0.,24.0,0.,24.0,0.,24.0
1979-03-01 23:38:45.360 ,2,1,0.,24.0,0.,24.0,0.,24.0,0.,24.0
1979-03-01 23:39:09.360 ,1,1,0.,24.0,0.,24.0,0.,24.0,0.,24.0
1979-03-01 23:39:33.360 ,0,1,0.,24.0,0.,24.0,0.,24.0,0.,24.0
1979-03-01 23:39:57.360 ,0,1,0.,24.0,0.,24.0,0.,24.0,0.,24.0
1979-03-01 23:40:21.360 ,1,1,0.,24.0,0.,24.0,0.,24.0,0.,24.0
1979-03-01 23:40:45.360 ,2,1,0.,24.0,0.,24.0,0.,24.0,0.,24.0